Find Local Weather

World > North America > United States > Illinois

Bourbonnais, Illinois Regional Weather

Lat: 41.16N, Lon: 87.88W
Wx Zone: ILZ023
Feedback

Bourbonnais, IL Regional Weather

Expires:201904240900;;403188
ASUS43 KLOT 240808
RWRIL 

ILLINOIS REGIONAL WEATHER ROUNDUP
NATIONAL WEATHER SERVICE CHICAGO/ROMEOVILLE IL
300 AM CDT WED APR 24 2019

NOTE: "FAIR" INDICATES FEW OR NO CLOUDS BELOW 12,000 FEET WITH NO
SIGNIFICANT WEATHER AND/OR OBSTRUCTIONS TO VISIBILITY.

* THESE STATIONS ARE NOT UNDER NWS QUALITY CONTROL. THEY ALSO MAY NOT
  REPORT WEATHER SUCH AS PRECIPITATION OR FOG.


ILZ005-006-012>014-019>023-240900-
NORTHEAST ILLINOIS
  
CITY           SKY/WX    TMP DP  RH WIND       PRES   REMARKS
CHICAGO-OHARE  MOCLDY    47  39  74 CALM      30.01F                  
CHICAGO-MIDWAY CLOUDY    49  38  65 E3        30.02F                  
AURORA         FAIR      41  37  86 NE3       30.01F                  
LANSING*       FAIR      40  39  97 CALM      30.02S                  
JOLIET*        FAIR      42  41  97 CALM      30.01F                  
WAUKEGAN       FAIR      36  33  89 CALM      30.03F                  
DUPAGE AIRPORT FAIR      42  37  82 CALM      30.01F                  
KANKAKEE*      FAIR      42  40  91 CALM      30.03S                  
WHEELING       FAIR      44  38  79 CALM      30.04F                  
MORRIS*          N/A     46  41  80 CALM      30.00F                  
ROMEOVILLE*    FAIR      44  39  83 SE3       30.02F                  
NORTHERLY ISL    N/A     45  42  89 NE6         N/A                   
$$


SKY/WX - Weather  TMP - Temperature  DP - Dew Point  RH - Relative Humidity
WIND - Wind Direction/Speed PRES - Barometric Pressure VSB - Visibility
WCI - Wind Chill Index E13G22 Wind - East Wind 13 mph/Gusts of 22 mph